Wind_Speed
3 4 4 2 0 3 7 7 9 7 6 10 11 12 11 15 13 12 11 11 12 14
7 5 5 2 2 5 4 5 5 6 9 13 15 14 13 14 16 9 9 11 12 16
10 7 7 5 5 6 8 8 9 10 11 13 16 16 15 16 16 14 12 12 15 12
7 8 9 7 7 8 9 9 11 12 13 16 18 18 15 15 16 15 11 12 12 10
9 8 8 8 8 8 9 10 11 13 15 17 18 18 16 15 15 15 14 12 12 9
11 11 10 9 8 9 10 12 13 14 15 17 17 18 19 18 16 14 14 14 13 10
16 13 11 11 10 10 12 13 14 15 16 18 19 19 23 19 16 15 15 16 15 15
14 13 13 13 11 12 14 14 14 16 17 17 17 21 6 7 12 14 18 18 17 17
15 16 16 14 13 14 13 13 14 15 16 15 17 20 20 18 18 17 18 21 19 18
16 15 15 15 15 13 10 13 14 15 18 17 19 18 17 16 16 21 20 20 21 24
18 17 18 18 16 12 12 14 17 17 18 20 22 21 19 18 23 22 23 23 25 23
19 19 19 19 16 14 15 15 16 17 21 21 20 17 15 12 15 22 25 23 22 18
21 20 20 19 16 14 14 17 19 20 19 14 12 22 21 15 16 25 30 23 20 19
22 20 19 16 13 13 18 19 16 18 19 19 19 23 14 14 15 21 21 21 19 14
Wind_Direction
188 244 231 328 166 323 306 314 315 325 308 314 307 302 311 319 317 319 332 340 341 339
198 214 253 311 298 281 304 313 355 330 312 307 306 303 298 300 313 320 335 338 338 333
198 205 219 231 257 277 291 293 294 295 295 305 307 302 299 296 290 300 312 321 328 334
195 210 209 227 243 260 275 282 284 286 288 291 296 294 294 293 288 286 299 313 321 324
197 204 218 228 245 262 276 279 281 280 284 290 293 292 296 292 293 296 298 297 306 311
197 201 215 229 246 260 269 272 275 284 290 293 293 292 286 273 285 283 281 285 295 293
192 202 216 231 243 253 266 274 284 293 292 292 287 283 279 277 271 278 275 282 284 281
187 200 210 227 238 250 265 275 283 288 288 290 292 291 304 287 284 281 280 277 276 277
198 199 209 225 236 242 258 274 287 295 293 294 295 298 309 310 303 292 283 282 276 276
203 205 214 224 232 236 260 279 283 292 293 293 289 291 291 297 298 296 286 286 284 284
205 210 216 223 230 236 242 259 273 278 281 288 287 288 297 300 299 291 293 285 286 288
208 215 220 225 229 238 241 254 259 270 278 281 287 296 311 317 309 303 294 295 292 290
214 219 225 231 230 226 239 247 278 276 281 291 307 298 314 306 291 290 295 295 291 303
216 219 226 228 225 241 246 282 279 292 297 294 294 293 333 309 293 281 292 302 305 311
Height
818 819 820 821 821 822 822 823 822 822 823 823 822 820 819 818 816 814 814 814 812 811
815 817 818 819 820 821 821 820 820 820 820 820 819 817 816 815 814 813 813 811 810 809
812 814 816 817 818 819 819 818 819 818 818 817 816 815 814 813 811 811 810 809 807 806
809 811 812 814 815 816 816 816 816 816 816 815 813 811 811 810 809 808 808 806 805 804
806 808 810 811 812 813 814 814 813 812 812 811 810 808 808 806 806 804 803 802 801 800
803 805 807 808 809 810 810 809 809 809 808 807 805 803 802 801 801 800 799 798 797 795
798 801 804 805 806 806 806 806 806 805 804 803 801 799 796 796 796 796 795 794 793 791
794 797 799 801 802 802 802 802 802 800 799 797 796 794 792 792 792 791 789 787 787 786
791 793 794 796 797 797 797 798 797 797 796 794 793 791 790 789 788 787 785 783 781 780
786 788 789 790 791 792 794 794 793 792 791 790 789 788 786 785 784 782 780 778 776 774
781 783 784 785 786 788 789 789 788 786 785 785 785 783 782 781 779 777 774 773 771 769
775 777 779 780 782 784 785 783 783 782 780 781 780 780 779 778 777 776 773 770 767 765
769 772 774 775 778 779 778 779 777 777 777 777 777 774 775 773 769 769 769 768 764 760
764 766 768 769 771 773 773 774 774 775 773 773 774 772 770 769 769 767 766 763 760 757